User: anonymous   Login
Location: Unspecified
(0.0000°N, 0.0000°E)
Time: 17:10:53
(UTC+02:00)
Language:

ARIANE 5 R/B - Orbit

View from above orbital plane
View from above orbital plane
View from above satellite
View from above satellite

Ground track
Ground track

The orbit data is extracted from the following two-line orbital elements,

1 28379U 04027B   15106.17274457  .00000149  00000-0 -56688-3 0  9993
2 28379 006.5951 239.1881 7285629 262.8175 079.4460 02.07920252 81636
Epoch (UTC): 16 April 2015 04:08:45
Eccentricity: 0.7285629
inclination: 6.5951°
perigee height: 660 km
apogee height: 38443 km
right ascension of ascending node: 239.1881°
argument of perigee: 262.8175°
revolutions per day: 2.07920252
mean anomaly at epoch: 79.4460°
orbit number at epoch: 8163

The dashed part of the orbit path shows where the satellite is in the earth's shadow,  

DLR